Marrakech, Morocco

11:50 PM WEST on September 19, 2017 (GMT +0100)
Marrakech

Weather History for GMMX - July, 2013

Change the Weather History Date:

Monday, July 29, 2013

  Actual Average Record
Temperature  
Mean Temperature 84 °F -  
Max Temperature 101 °F 94 °F 111 °F (2003)
Min Temperature 68 °F 67 °F 63 °F (2012)
Cooling Degree Days 20    
Growing Degree Days 34 (Base 50)    
Moisture  
Dew Point 54 °F    
Average Humidity 35    
Maximum Humidity 57    
Minimum Humidity 10    
Precipitation  
Precipitation 0.00 in 0.00 in - ()
Sea Level Pressure  
Sea Level Pressure 30.08 in    
Wind  
Wind Speed 5 mph ()    
Max Wind Speed 16 mph    
Max Gust Speed -    
Visibility 6.0 miles    
Events      
Averages and records for this station are not official NWS values.
T = Trace of Precipitation, MM = Missing Value Source: Averaged Metar Reports

Daily Weather History Graph

Daily Weather History Graph

Search for Another Location

Airport or City:

Trip Planner

Search our weather history database for the weather conditions in past years. The results will help you decide how hot, cold, wet, or windy it might be!

Date:

Astronomy

Jul. 29, 2013 Rise Set
Actual Time 5:46 AM WET 7:30 PM WET
Civil Twilight 5:19 AM WET 7:57 PM WET
Nautical Twilight 4:47 AM WET 8:29 PM WET
Astronomical Twilight 4:13 AM WET 9:03 PM WET
Moon 11:52 PM WET (7/29) 12:43 PM WET (7/29)
Length of Visible Light 14h 37m
Length of Day
13h 44m
Waning Gibbous, 52% of the Moon is Illuminated
Jul 29
Waning Gibbous
Jul 29
Last Quarter
Aug 6
New
Aug 14
First Quarter
Aug 21
Full

Hourly Weather History & Observations

Time (WET) Temp. Heat Index Dew Point Humidity Pressure Visibility Wind Dir Wind Speed Gust Speed Precip Events Conditions
12:00 AM 80 °F - 55 °F 32% 30.05 in 6 mi ENE 3.5 mph - -  
12:00 AM 80.6 °F 80.5 °F 55.4 °F 42% 30.12 in - ENE 3.5 mph - N/A   Clear
12:30 AM 78.8 °F - 55.4 °F 44% 30.12 in - NE 3.5 mph - N/A   Clear
1:00 AM 78.8 °F - 55.4 °F 44% 30.12 in - NE 2.3 mph - N/A   Clear
1:30 AM 78.8 °F - 55.4 °F 44% 30.12 in - NE 1.2 mph - N/A   Clear
2:00 AM 73.4 °F - 55.4 °F 53% 30.12 in - WSW 4.6 mph - N/A   Clear
2:30 AM 75.2 °F - 55.4 °F 50% 30.12 in - SW 4.6 mph - N/A   Clear
3:00 AM 76 °F - 54 °F 37% 30.05 in 6 mi SW 4.6 mph - -  
3:00 AM 77.0 °F - 55.4 °F 47% 30.12 in - SW 4.6 mph - N/A   Clear
3:30 AM 73.4 °F - 55.4 °F 53% 30.12 in - West 4.6 mph - N/A   Clear
4:00 AM 71.6 °F - 53.6 °F 53% 30.12 in - SW 4.6 mph - N/A   Clear
4:30 AM 73.4 °F - 55.4 °F 53% 30.12 in - SW 6.9 mph - N/A   Clear
5:00 AM 71.6 °F - 53.6 °F 53% 30.12 in - SW 4.6 mph - N/A   Clear
5:30 AM 71.6 °F - 55.4 °F 57% 30.12 in - SW 5.8 mph - N/A   Clear
6:00 AM 72 °F - 54 °F 43% 30.07 in 6 mi SW 5.8 mph - -  
6:00 AM 71.6 °F - 55.4 °F 57% 30.12 in - SW 5.8 mph - N/A   Clear
6:30 AM 69.8 °F - 53.6 °F 56% 30.12 in - SW 3.5 mph - N/A   Clear
7:00 AM 73.4 °F - 55.4 °F 53% 30.12 in - West 3.5 mph - N/A   Clear
7:30 AM 77.0 °F - 55.4 °F 47% 30.12 in - WNW 3.5 mph - N/A   Clear
8:00 AM 77.0 °F - 55.4 °F 47% 30.12 in - WNW 3.5 mph - N/A   Clear
8:30 AM 78.8 °F - 55.4 °F 44% 30.12 in - WNW 3.5 mph - N/A   Clear
9:00 AM 81 °F - 55 °F 31% 30.06 in 6 mi NNW 3.5 mph - -  
9:00 AM 80.6 °F 80.5 °F 55.4 °F 42% 30.12 in - NW 3.5 mph - N/A   Clear
9:30 AM 82.4 °F 81.7 °F 55.4 °F 39% 30.12 in - WNW 3.5 mph - N/A   Clear
10:00 AM 86.0 °F 84.5 °F 55.4 °F 35% 30.12 in - Variable 3.5 mph - N/A   Clear
10:30 AM 87.8 °F 86.1 °F 55.4 °F 33% 30.12 in - North 4.6 mph - N/A   Clear
11:00 AM 89.6 °F 87.3 °F 53.6 °F 29% 30.12 in - Variable 4.6 mph - N/A   Clear
11:30 AM 91.4 °F 89.1 °F 53.6 °F 28% 30.12 in - North 6.9 mph - N/A   Clear
12:00 PM 92 °F - 53 °F 18% 30.00 in 6 mi North 8.1 mph - -  
12:00 PM 93.2 °F 90.8 °F 53.6 °F 26% 30.09 in - North 8.1 mph - N/A   Clear
12:30 PM 95.0 °F 92.7 °F 53.6 °F 25% 30.09 in - Variable 5.8 mph - N/A   Clear
1:00 PM 95.0 °F 92.7 °F 53.6 °F 25% 30.09 in - NNW 5.8 mph - N/A   Clear
1:30 PM 96.8 °F 94.4 °F 53.6 °F 23% 30.06 in - Variable 4.6 mph - N/A   Clear
2:00 PM 96.8 °F - 51.8 °F 22% 30.06 in - NW 8.1 mph - N/A   Clear
2:30 PM 98.6 °F - 51.8 °F 21% 30.06 in - Variable 5.8 mph - N/A   Clear
3:00 PM 100 °F - 52 °F 12% 29.93 in 6 mi NW 6.9 mph - -  
3:00 PM 100.4 °F - 51.8 °F 20% 30.06 in - NW 5.8 mph - N/A   Clear
3:30 PM 100.4 °F - 50.0 °F 18% 30.06 in - Variable 3.5 mph - N/A   Clear
4:00 PM 100.4 °F - 50.0 °F 18% 30.06 in - NW 6.9 mph - N/A   Clear
4:30 PM 100.4 °F - 51.8 °F 20% 30.04 in - North 8.1 mph - N/A   Clear
5:00 PM 100.4 °F - 50.0 °F 18% 30.04 in - ENE 5.8 mph - N/A   Clear
5:30 PM 100.4 °F - 50.0 °F 18% 30.04 in - Variable 4.6 mph - N/A   Clear
6:00 PM 101 °F - 50 °F 10% 29.90 in 6 mi NE 5.8 mph - -  
6:00 PM 100.4 °F - 50.0 °F 18% 30.04 in - ENE 6.9 mph - N/A   Clear
6:30 PM 100.4 °F - 50.0 °F 18% 30.04 in - NE 6.9 mph - N/A   Clear
7:00 PM 96.8 °F 95.8 °F 57.2 °F 27% 30.04 in - North 13.8 mph - N/A   Clear
7:30 PM 93.2 °F 91.9 °F 57.2 °F 30% 30.06 in - North 15.0 mph - N/A   Clear
8:00 PM 89.6 °F 88.9 °F 59.0 °F 36% 30.06 in - NNE 16.1 mph - N/A   Clear
8:30 PM 87.8 °F 86.5 °F 57.2 °F 35% 30.09 in - NNE 11.5 mph - N/A   Clear
9:00 PM 86 °F - 56 °F 26% 30.01 in 6 mi NNE 12.7 mph - -  
9:00 PM 86.0 °F 84.5 °F 55.4 °F 35% 30.09 in - NNE 11.5 mph - N/A   Clear
9:30 PM 84.2 °F 83.0 °F 55.4 °F 37% 30.12 in - NE 8.1 mph - N/A   Clear
10:00 PM 84.2 °F 83.0 °F 55.4 °F 37% 30.12 in - ENE 6.9 mph - N/A   Clear
10:30 PM 84.2 °F 82.8 °F 53.6 °F 35% 30.12 in - NE 6.9 mph - N/A   Clear
11:00 PM 82.4 °F 81.4 °F 53.6 °F 37% 30.12 in - NNE 6.9 mph - N/A   Clear
11:30 PM 82.4 °F 81.4 °F 53.6 °F 37% 30.12 in - NNE 8.1 mph - N/A   Clear